Le nostre stazioni meteo in Italia

Pubblicità
Il mio iltempo24.it
Modena, Italia (16128): Temperatura & dewpoint: 14.01.2019 07:00:00 - 20.01.2019 07:00:00 (CET)Modena, Italia (16128): velocità del vento: 14.01.2019 07:00:00 - 20.01.2019 07:00:00 (CET)Modena, Italia (16128): direzione del vento: 14.01.2019 07:00:00 - 20.01.2019 07:00:00 (CET)Modena, Italia (16128): reduced air pressure: 14.01.2019 07:00:00 - 20.01.2019 07:00:00 (CET)Modena, Italia (16128): precipitazioni: 14.01.2019 07:00:00 - 20.01.2019 07:00:00 (CET)
Data & Tempo tt [°C] td [°C] ff [km/h] ff [kn] dd ppp [hPa] rr [mm]
20.01.2019 07:00:00 - - - - - - -
20.01.2019 06:00:00 2,3 0,2 3 2 NNO 1015,4 -
20.01.2019 05:00:00 2,5 0,6 - - - 1015,5 0,0
20.01.2019 04:00:00 2,9 0,5 5 3 ONO 1015,7 0,0
20.01.2019 03:00:00 3,1 0,2 1 1 O 1016,0 0,0
20.01.2019 02:00:00 3,2 0,3 - - - 1016,1 0,0
20.01.2019 01:00:00 3,6 0,1 2 1 ONO 1016,3 0,0
20.01.2019 00:00:00 - - - - - - -
19.01.2019 23:00:00 4,2 -0,2 - - - 1016,8 -
19.01.2019 22:00:00 4,0 -0,6 3 2 NO 1016,8 0,0
19.01.2019 21:00:00 4,5 -0,3 1 1 N 1016,6 0,0
19.01.2019 20:00:00 4,6 -0,4 1 1 ESE 1016,6 0,0
19.01.2019 19:00:00 4,5 -0,5 2 1 N 1016,5 0,0
19.01.2019 18:00:00 4,6 -0,4 - - - 1016,5 0,0
19.01.2019 17:00:00 4,9 -0,9 - - - 1016,5 0,0
19.01.2019 16:00:00 4,8 -1,0 5 3 ESE 1016,6 0,0
19.01.2019 15:00:00 4,8 -1,0 5 3 ESE 1016,7 0,0
19.01.2019 14:00:00 4,9 -1,6 5 3 NNE 1017,0 0,0
19.01.2019 13:00:00 4,4 -1,6 4 2 NNO 1017,7 0,0
19.01.2019 12:00:00 3,9 -0,7 5 3 ONO 1018,4 0,0
19.01.2019 11:00:00 3,5 0,4 3 2 ONO 1018,8 0,0
19.01.2019 10:00:00 2,8 1,3 6 4 O 1018,5 0,0
19.01.2019 09:00:00 3,0 -0,1 1 1 SSE 1018,1 0,0
19.01.2019 08:00:00 2,5 0,1 - - - 1018,0 0,2
19.01.2019 07:00:00 2,6 0,5 6 3 ENE 1017,7 0,2
19.01.2019 06:00:00 2,6 0,7 8 4 E 1017,6 0,6
19.01.2019 05:00:00 3,2 0,3 14 8 NE 1017,6 0,0
19.01.2019 04:00:00 3,4 0,8 10 6 ENE 1017,6 0,0
19.01.2019 03:00:00 3,9 1,8 13 7 ENE 1017,7 0,0
19.01.2019 02:00:00 4,2 1,7 13 7 ENE 1017,2 0,6
19.01.2019 01:00:00 4,2 2,5 10 5 NNE 1017,3 2,0
19.01.2019 00:00:00 4,5 3,0 10 5 ENE 1017,4 0,2
18.01.2019 23:00:00 - - - - - - -
18.01.2019 22:00:00 5,3 3,3 11 6 ENE 1016,7 0,0
18.01.2019 21:00:00 5,8 2,1 11 6 NE 1016,2 0,0
18.01.2019 20:00:00 6,0 1,7 11 6 N 1015,9 0,0
18.01.2019 19:00:00 6,2 2,1 12 6 NNE 1015,8 0,0
18.01.2019 18:00:00 6,5 3,1 13 7 NE 1015,4 0,0
18.01.2019 17:00:00 6,6 4,4 13 7 ENE 1015,1 0,0
18.01.2019 16:00:00 7,5 2,4 5 3 E 1014,6 0,0
18.01.2019 15:00:00 7,7 3,2 14 7 E 1014,0 0,0
18.01.2019 14:00:00 7,9 3,6 19 11 ENE 1013,5 0,0
18.01.2019 13:00:00 8,6 2,0 5 3 NNE 1013,1 0,0
18.01.2019 12:00:00 7,6 3,3 3 2 ONO 1013,2 0,0
18.01.2019 11:00:00 7,2 3,8 3 2 NNO 1013,2 0,0
18.01.2019 10:00:00 5,6 3,4 7 4 ONO 1012,5 0,0
18.01.2019 09:00:00 4,7 3,2 8 5 NNO 1011,8 0,0
18.01.2019 08:00:00 5,2 3,1 6 3 NO 1011,2 0,0
18.01.2019 07:00:00 5,1 3,3 13 7 ONO 1010,6 0,0
18.01.2019 06:00:00 5,3 4,0 11 6 O 1010,6 0,0
18.01.2019 05:00:00 5,1 4,4 6 3 O 1010,5 0,2
18.01.2019 04:00:00 4,5 4,1 8 4 O 1010,7 0,0
18.01.2019 03:00:00 4,4 4,0 4 2 O 1011,0 1,6
18.01.2019 02:00:00 4,3 3,7 9 5 ONO 1010,9 1,4
18.01.2019 01:00:00 4,4 3,5 14 7 ONO 1010,9 0,0
18.01.2019 00:00:00 4,5 3,3 8 4 ONO 1011,1 0,0
17.01.2019 23:00:00 5,2 3,1 4 2 SSE 1011,1 0,0
17.01.2019 22:00:00 4,8 2,5 2 1 NO 1011,6 0,0
17.01.2019 21:00:00 4,9 2,1 12 7 ONO 1011,9 0,0
17.01.2019 20:00:00 6,1 1,2 6 3 ONO 1011,9 0,0
17.01.2019 19:00:00 6,7 1,4 5 3 NNO 1011,9 0,0
17.01.2019 18:00:00 7,0 1,5 4 2 ONO 1012,1 0,0
17.01.2019 17:00:00 7,4 1,7 5 3 ONO 1012,4 0,0
17.01.2019 16:00:00 9,1 2,2 12 7 NO 1012,7 0,0
17.01.2019 15:00:00 9,9 2,3 9 5 NO 1012,8 0,0
17.01.2019 14:00:00 10,5 2,1 8 5 NNO 1013,1 0,0
17.01.2019 13:00:00 10,7 1,8 5 3 N 1013,5 0,0
17.01.2019 12:00:00 9,0 1,4 6 3 N 1014,7 0,0
17.01.2019 11:00:00 7,8 0,3 3 2 N 1015,9 0,0
17.01.2019 10:00:00 4,6 -0,2 - - - 1015,8 -
17.01.2019 09:00:00 5,8 -0,5 4 2 O 1015,6 0,0
17.01.2019 08:00:00 4,8 -0,6 5 3 SSE 1015,6 0,0
17.01.2019 07:00:00 4,5 -0,9 3 2 SSO 1015,7 0,0
17.01.2019 06:00:00 4,0 -0,8 - - - 1016,3 -
17.01.2019 05:00:00 4,4 -0,8 4 2 O 1016,7 0,0
17.01.2019 04:00:00 5,2 -0,8 6 3 NNE 1016,8 0,0
17.01.2019 03:00:00 4,3 -0,7 6 3 N 1017,7 0,0
17.01.2019 02:00:00 5,3 -0,5 5 3 ESE 1017,7 0,0
17.01.2019 01:00:00 8,2 -0,6 9 5 SSO 1018,0 0,0
17.01.2019 00:00:00 7,0 -0,5 - - - 1018,8 0,0
16.01.2019 23:00:00 7,5 -0,5 11 6 O 1019,1 0,0
16.01.2019 22:00:00 6,7 -0,3 9 5 O 1019,4 0,0
16.01.2019 21:00:00 8,7 0,4 3 1 SE 1018,9 0,0
16.01.2019 20:00:00 9,5 0,4 6 3 SSE 1019,0 0,0
16.01.2019 19:00:00 10,7 0,1 - - - 1019,1 -
16.01.2019 18:00:00 11,6 0,1 - - - 1018,8 0,0
16.01.2019 17:00:00 12,2 -0,3 0 0 E 1018,9 0,0
16.01.2019 16:00:00 13,4 -0,3 3 2 N 1018,8 0,0
16.01.2019 15:00:00 13,8 -0,6 4 2 ENE 1018,9 0,0
16.01.2019 14:00:00 13,3 -0,7 - - - 1019,0 -
16.01.2019 13:00:00 12,6 -2,5 - - - 1019,8 0,0
16.01.2019 12:00:00 10,3 -3,1 1 1 ONO 1020,6 0,0
16.01.2019 11:00:00 7,9 -4,5 4 2 ONO 1021,2 0,0
16.01.2019 10:00:00 5,2 -5,5 4 2 O 1021,1 0,0
16.01.2019 09:00:00 3,3 -6,1 4 2 OSO 1020,7 0,0
16.01.2019 08:00:00 2,7 -6,4 - - - 1020,5 -
16.01.2019 07:00:00 3,0 -6,9 4 2 E 1020,3 0,0
16.01.2019 06:00:00 3,6 -7,8 9 5 SSO 1020,1 0,0
16.01.2019 05:00:00 3,6 -7,2 11 6 OSO 1020,3 0,0
16.01.2019 04:00:00 3,9 -7,9 13 7 SO 1020,6 0,0
16.01.2019 03:00:00 3,0 -6,9 - - - 1020,9 -
16.01.2019 02:00:00 3,3 -6,7 3 2 O 1020,7 0,0
16.01.2019 01:00:00 3,3 -6,4 6 3 OSO 1020,5 0,0
16.01.2019 00:00:00 5,3 -7,5 6 4 O 1020,4 0,0
15.01.2019 23:00:00 6,6 -8,2 15 8 SO 1020,4 0,0
15.01.2019 22:00:00 6,3 -7,3 12 6 SSO 1020,5 0,0
15.01.2019 21:00:00 6,4 -7,2 - - - 1020,3 0,0
15.01.2019 20:00:00 7,9 -7,4 3 2 OSO 1019,9 0,0
15.01.2019 19:00:00 9,3 -8,3 8 5 SSO 1019,2 0,0
15.01.2019 18:00:00 10,5 -8,7 7 4 O 1018,7 0,0
15.01.2019 17:00:00 11,4 -9,0 8 4 O 1018,6 0,0
15.01.2019 16:00:00 12,4 -9,3 11 6 ONO 1018,4 0,0
15.01.2019 15:00:00 12,9 -10,2 10 5 ONO 1018,2 0,0
15.01.2019 14:00:00 12,0 -9,1 15 8 ONO 1018,3 0,0
15.01.2019 13:00:00 11,2 -6,6 8 4 ONO 1018,7 0,0
15.01.2019 12:00:00 10,0 -6,8 16 8 ONO 1019,2 0,0
15.01.2019 11:00:00 9,6 -7,1 13 7 ONO 1019,4 0,0
15.01.2019 10:00:00 7,5 -7,0 6 3 SO 1018,8 0,0
15.01.2019 09:00:00 6,2 -8,1 12 6 SO 1018,0 0,0
15.01.2019 08:00:00 5,5 -8,0 14 8 SSO 1017,3 0,0
15.01.2019 07:00:00 4,5 -7,0 11 6 SE 1016,8 0,0
15.01.2019 06:00:00 5,3 -7,5 9 5 SSO 1016,0 0,0
15.01.2019 05:00:00 6,9 -7,5 6 4 OSO 1015,7 0,0
15.01.2019 04:00:00 6,9 -7,2 10 5 O 1015,3 0,0
15.01.2019 03:00:00 7,4 -7,4 15 8 O 1015,2 0,0
15.01.2019 02:00:00 7,6 -7,7 16 9 O 1014,8 0,0
15.01.2019 01:00:00 7,7 -7,6 17 9 O 1014,1 0,0
15.01.2019 00:00:00 7,3 -7,5 17 9 O 1013,3 0,0
14.01.2019 23:00:00 8,7 -7,9 22 12 O 1011,6 0,0
14.01.2019 22:00:00 9,0 -8,6 22 12 O 1010,6 0,0
14.01.2019 21:00:00 9,2 -8,8 19 10 O 1010,0 0,0
14.01.2019 20:00:00 10,1 -9,1 24 13 ONO 1008,9 0,0
14.01.2019 19:00:00 11,0 -8,8 26 14 ONO 1007,6 0,0
14.01.2019 18:00:00 11,8 -8,1 32 17 ONO 1006,8 0,0
14.01.2019 17:00:00 13,3 -7,4 32 17 ONO 1006,1 0,0
14.01.2019 16:00:00 14,9 -6,6 27 15 ONO 1005,2 0,0
14.01.2019 15:00:00 15,0 -3,9 27 14 ONO 1004,7 0,0
14.01.2019 14:00:00 13,8 -1,8 28 15 ONO 1004,7 0,0
14.01.2019 13:00:00 - - - - - - -
14.01.2019 12:00:00 10,4 1,0 13 7 ONO 1005,4 0,0
14.01.2019 11:00:00 6,9 1,0 - - - 1005,8 0,0
14.01.2019 10:00:00 3,6 -0,8 - - - 1005,9 -
14.01.2019 09:00:00 2,5 -1,1 4 2 ESE 1005,1 0,0
14.01.2019 08:00:00 1,4 -1,2 7 4 SE 1003,0 0,0
14.01.2019 07:00:00 2,0 -0,9 8 4 N 1000,7 0,0

tt = Temperatura
td = dewpoint
ff = velocità del vento
dd = direzione del vento
ppp = reduced air pressure
rr = precipitazioni

Stazioni seguenti

WeatherPro
AMSI
MeteoEarth